Home > Time Zones > World Clock > Weather > Spain > Cadiz > Past weeks

Flag for Spain Weather past 2 weeks in Cadiz, Cádiz, Spain

Now
64 °F

Passing clouds.


Feels Like: 64 °F
Forecast: 55 / 72 °F
Wind: 6 mph from Southwest

Location: Rota Airport

Current Time: Mar 31, 2015 at 3:13:46 PM

Latest Report: Mar 31, 2015 at 2:00 PM


Visibility: N/A

Pressure: 30.30 "Hg

Humidity: 83%

Dew point: 59 °F

Location of CadizLocation

Historic Weather in Cadiz — Graph

°F

Cadiz temperature yesterday

Maximum temperature yesterday: 72 °F (at 1:00 PM)
Minimum temperature yesterday: 54 °F (at 8:00 AM)
Average temperature yesterday: 64 °F

Past Weeks' High & Low Weather Summary

 TemperatureHumidityPressure
High75 °F (Mar 28, 1:00 PM)100% (Mar 20, 5:00 AM)30.36 "Hg (Mar 20, 5:00 AM)
Low46 °F (Mar 18, 5:00 AM)32% (Mar 25, 3:00 PM)29.59 "Hg (Mar 24, 7:00 AM)
Average57 °F81%29.98 "Hg
* Reported Mar 16 12:00 Noon — Mar 31 1:00 PM, Cadiz, Weather by CustomWeather, © 2015

Note: Actual official high and low records may vary slightly from our data, if they occured in-between our weather recording intervals... More about our weather records

Advertising

Cadiz weather history for previous 24 hours

 ConditionsComfort  
Time TempWeatherWind HumidityBarometerVisibility
1:00 PM
Tue, Mar 31
68 °FPassing clouds.3 mph73%30.30 "HgN/A
12:00 PM68 °FSunny.2 mph69%30.30 "Hg10 mi
11:00 AM64 °FSunny.2 mph78%30.30 "Hg10 mi
10:00 AM59 °FSunny.No wind88%30.30 "Hg10 mi
9:00 AM54 °FClear.1 mph94%30.30 "Hg6 mi
8:00 AM54 °FClear.No wind94%30.27 "Hg10 mi
7:00 AM54 °FClear.1 mph94%30.27 "Hg4 mi
6:00 AM55 °FFog.6 mph94%30.27 "Hg2 mi
5:00 AM55 °FFog.6 mph94%30.27 "Hg2 mi
4:00 AM57 °FFog.2 mph94%30.30 "Hg2 mi
3:00 AM59 °FClear.2 mph94%30.30 "Hg10 mi
2:00 AM61 °FClear.2 mph88%30.30 "Hg10 mi
1:00 AM61 °FPassing clouds.6 mph88%30.33 "HgN/A
12:00 AM61 °FClear.2 mph88%30.33 "Hg10 mi
11:00 PM
Mon, Mar 30
61 °FClear.3 mph83%30.30 "Hg10 mi
10:00 PM61 °FClear.5 mph83%30.30 "Hg10 mi
9:00 PM63 °FSunny.7 mph83%30.30 "Hg10 mi
8:00 PM66 °FSunny.7 mph73%30.30 "Hg10 mi
7:00 PM70 °FPassing clouds.7 mph53%30.30 "HgN/A
6:00 PM72 °FPassing clouds.10 mph50%30.30 "HgN/A
5:00 PM72 °FPassing clouds.10 mph53%30.30 "HgN/A
4:00 PM70 °FSunny.12 mph57%30.33 "Hg10 mi
3:00 PM68 °FSunny.9 mph69%30.33 "Hg10 mi
Weather by CustomWeather, © 2015

See weather overviewHow to use our weather pages